Change the Weather History Date:

Saturday, October 27, 2012

  Actual Average (LTCC) Record (LTCC)
Temperature  
Mean Temperature 60 °F -  
Max Temperature 66 °F 67 °F 78 °F (2002)
Min Temperature 51 °F 45 °F 32 °F (1996)
Degree Days  
Heating Degree Days 6    
Growing Degree Days 10 (Base 50)    
Moisture  
Dew Point 52 °F    
Average Humidity 81    
Maximum Humidity 100    
Minimum Humidity 56    
Precipitation  
Precipitation 0.00 in - - ()
Sea Level Pressure  
Sea Level Pressure 30.00 in    
Wind  
Wind Speed 3 mph ()    
Max Wind Speed 8 mph    
Max Gust Speed -    
Visibility 6.0 miles    
Events Fog , Rain    
Averages and records for this station are not official NWS values.
T = Trace of Precipitation, MM = Missing Value Source: Averaged Metar Reports

Daily Weather History Graph

Daily Weather History Graph

Search for Another Location

Airport or City:

Trip Planner

Search our weather history database for the weather conditions in past years. The results will help you decide how hot, cold, wet, or windy it might be!

Date:

Astronomy

Oct. 27, 2012 Rise Set
Actual Time 6:36 AM EEST 5:22 PM EEST
Civil Twilight 6:09 AM EEST 5:49 PM EEST
Nautical Twilight 5:38 AM EEST 6:19 PM EEST
Astronomical Twilight 5:07 AM EEST 6:50 PM EEST
Moon 3:55 PM EEST (10/27) 4:11 AM EEST (10/27)
Length of Visible Light 11h 40m
Length of Day
10h 46m
Waxing Gibbous, 94% of the Moon is Illuminated
Oct 27
Waxing Gibbous
Oct 29
Full
Nov 7
Last Quarter
Nov 14
New
Nov 20
First Quarter

Hourly Weather History & Observations

Time (EEST) Temp. Dew Point Humidity Pressure Visibility Wind Dir Wind Speed Gust Speed Precip Events Conditions
12:20 AM 55.4 °F 53.6 °F 94% 29.98 in 6.2 mi SSW 8.1 mph - N/A Rain Light Rain Showers
12:50 AM 55.4 °F 53.6 °F 94% 29.98 in 6.2 mi SW 8.1 mph - N/A   Mostly Cloudy
1:20 AM 55.4 °F 51.8 °F 88% 29.98 in 6.2 mi SW 5.8 mph - N/A   Mostly Cloudy
1:50 AM 55.4 °F 53.6 °F 94% 29.98 in 6.2 mi South 4.6 mph - N/A   Mostly Cloudy
2:20 AM 55.4 °F 53.6 °F 94% 29.98 in 6.2 mi SW 3.5 mph - N/A   Mostly Cloudy
2:50 AM 55.4 °F 53.6 °F 94% 29.98 in 6.2 mi Variable 2.3 mph - N/A   Mostly Cloudy
3:20 AM 55.4 °F 53.6 °F 94% 29.98 in 6.2 mi Calm Calm - N/A   Mostly Cloudy
3:50 AM 55.4 °F 53.6 °F 94% 29.98 in 6.2 mi Calm Calm - N/A   Mostly Cloudy
4:20 AM 53.6 °F 51.8 °F 94% 29.98 in 6.2 mi Variable 1.2 mph - N/A   Mostly Cloudy
4:50 AM 53.6 °F 51.8 °F 94% 29.98 in 6.2 mi SSE 2.3 mph - N/A   Mostly Cloudy
5:20 AM 53.6 °F 51.8 °F 94% 29.98 in 6.2 mi SE 2.3 mph - N/A   Mostly Cloudy
5:50 AM 53.6 °F 51.8 °F 94% 29.98 in 6.2 mi West 2.3 mph - N/A   Mostly Cloudy
6:20 AM 53.6 °F 51.8 °F 94% 29.98 in 6.2 mi WSW 3.5 mph - N/A   Mostly Cloudy
6:50 AM 53.6 °F 51.8 °F 94% 30.01 in 0.5 mi WSW 2.3 mph - N/A Fog Patches of Fog
7:20 AM 53.6 °F 53.6 °F 100% 30.01 in 5.0 mi Calm Calm - N/A   Mostly Cloudy
7:50 AM 55.4 °F 53.6 °F 94% 30.01 in 6.2 mi Calm Calm - N/A   Mostly Cloudy
8:20 AM 55.4 °F 53.6 °F 94% 30.01 in 6.2 mi Variable 1.2 mph - N/A   Mostly Cloudy
8:50 AM 55.4 °F 53.6 °F 94% 30.04 in 6.2 mi Variable 2.3 mph - N/A   Mostly Cloudy
9:20 AM 57.2 °F 53.6 °F 88% 30.04 in 6.2 mi Variable 2.3 mph - N/A   Mostly Cloudy
9:50 AM 59.0 °F 51.8 °F 77% 30.04 in 6.2 mi Variable 1.2 mph - N/A   Mostly Cloudy
10:20 AM 59.0 °F 51.8 °F 77% 30.04 in 6.2 mi Variable 2.3 mph - N/A   Mostly Cloudy
10:50 AM 60.8 °F 51.8 °F 72% 30.04 in 6.2 mi West 3.5 mph - N/A   Scattered Clouds
11:20 AM 64.4 °F 51.8 °F 64% 30.04 in 6.2 mi Variable 1.2 mph - N/A   Scattered Clouds
11:50 AM 60.8 °F 50.0 °F 68% 30.01 in 6.2 mi Variable 2.3 mph - N/A   Scattered Clouds
12:20 PM 64.4 °F 51.8 °F 64% 30.01 in 6.2 mi WNW 4.6 mph - N/A   Scattered Clouds
12:50 PM 64.4 °F 51.8 °F 64% 30.01 in 6.2 mi WSW 5.8 mph - N/A   Scattered Clouds
1:20 PM 66.2 °F 50.0 °F 56% 29.98 in 6.2 mi SSW 5.8 mph - N/A   Scattered Clouds
1:50 PM 66.2 °F 50.0 °F 56% 29.98 in 6.2 mi SW 5.8 mph - N/A   Scattered Clouds
2:20 PM 66.2 °F 51.8 °F 60% 29.98 in 6.2 mi SW 5.8 mph - N/A   Scattered Clouds
2:50 PM 66.2 °F 50.0 °F 56% 29.98 in 6.2 mi Variable 4.6 mph - N/A   Scattered Clouds
3:20 PM 66.2 °F 50.0 °F 56% 29.98 in 6.2 mi West 3.5 mph - N/A   Scattered Clouds
3:50 PM 66.2 °F 50.0 °F 56% 29.98 in 6.2 mi Variable 2.3 mph - N/A   Scattered Clouds
4:20 PM 66.2 °F 50.0 °F 56% 29.98 in 6.2 mi West 3.5 mph - N/A   Scattered Clouds
4:50 PM 66.2 °F 51.8 °F 60% 29.98 in 6.2 mi SW 4.6 mph - N/A   Partly Cloudy
5:20 PM 64.4 °F 51.8 °F 64% 29.98 in 6.2 mi SW 3.5 mph - N/A   Partly Cloudy
5:50 PM 62.6 °F 51.8 °F 68% 29.98 in 6.2 mi SW 2.3 mph - N/A   Partly Cloudy
6:20 PM 60.8 °F 51.8 °F 72% 30.01 in 6.2 mi Variable 2.3 mph - N/A   Partly Cloudy
6:50 PM 59.0 °F 51.8 °F 77% 30.01 in 6.2 mi Calm Calm - N/A   Partly Cloudy
7:20 PM 59.0 °F 51.8 °F 77% 30.01 in 6.2 mi Calm Calm - N/A   Scattered Clouds
7:50 PM 57.2 °F 51.8 °F 82% 30.01 in - SSE 3.5 mph - N/A   Clear
8:20 PM 57.2 °F 51.8 °F 82% 30.01 in - SE 6.9 mph - N/A   Clear
8:50 PM 57.2 °F 51.8 °F 82% 30.04 in - Variable 1.2 mph - N/A   Clear
9:20 PM 55.4 °F 51.8 °F 88% 30.04 in - Variable 2.3 mph - N/A   Clear
9:50 PM 55.4 °F 51.8 °F 88% 30.04 in - NNE 1.2 mph - N/A   Clear
10:20 PM 53.6 °F 51.8 °F 94% 30.04 in - ENE 1.2 mph - N/A   Clear
10:50 PM 53.6 °F 50.0 °F 88% 30.04 in - Variable 1.2 mph - N/A   Clear
11:20 PM 53.6 °F 51.8 °F 94% 30.04 in - Variable 1.2 mph - N/A   Clear
11:50 PM 51.8 °F 50.0 °F 94% 30.04 in - NNE 3.5 mph - N/A   Clear